Orbital elements:
2000 YF29                                                            PHA 0.022
Epoch 2000 Dec. 2.0 TT = JDT 2451880.5                  Williams
M 318.16874              (2000.0)            P               Q
n   0.54282821     Peri.   28.06544     -0.88908506     -0.44884077
a   1.4883136      Node   124.98541     +0.39677513     -0.85353870
e   0.3699969      Incl.    6.29483     +0.22824823     -0.26460092
P   1.82           H   20.2           G   0.15
From 89 observations 2000 Nov. 25-2001 Jan. 1.

Ephemeris:
2000 YF29                a,e,i = 1.49, 0.37, 6                   q = 0.9376
Date    TT    R. A. (2000) Decl.     Delta      r     Elong.  Phase     V
2001 01 01    04 50.82   -09 10.8    0.101    1.059   137.2    39.1    16.9
2001 01 06    04 37.11   -10 08.5    0.080    1.037   130.6    46.0    16.5
2001 01 11    04 16.40   -11 09.5    0.060    1.017   122.2    55.0    16.1
2001 01 16    03 37.80   -12 26.9    0.041    0.998   109.3    68.5    15.6
2001 01 21    02 00.37   -13 48.7    0.024    0.981    82.5    96.2    15.5

2001 01 31    19 41.86   +00 30.1    0.033    0.955    25.3   153.8    21.9
2001 02 10    18 30.43   +04 16.0    0.073    0.941    49.3   127.3    19.8
2001 02 20    18 16.79   +04 35.9    0.116    0.938    61.0   112.9    19.7
2001 03 02    18 16.59   +04 20.5    0.156    0.948    69.6   101.5    19.8
2001 03 12    18 20.98   +03 58.9    0.193    0.969    77.2    91.6    19.8
2001 03 22    18 26.35   +03 40.7    0.225    1.001    84.7    82.4    19.8
2001 04 01    18 30.03   +03 26.5    0.250    1.041    92.6    73.5    19.8
2001 04 11    18 30.23   +03 09.9    0.268    1.087   101.4    64.6    19.8
2001 04 21    18 25.48   +02 43.1    0.282    1.138   111.3    55.3    19.7
2001 05 01    18 14.68   +01 54.7    0.294    1.192   122.6    45.4    19.7
2001 05 11    17 58.10   +00 33.8    0.308    1.248   135.1    34.8    19.6
2001 05 21    17 37.39   -01 22.4    0.330    1.304   148.0    24.3    19.5
2001 05 31    17 15.71   -03 47.5    0.364    1.360   159.0    15.5    19.5
2001 06 10    16 56.66   -06 25.9    0.412    1.415   163.0    12.1    19.8
2001 06 20    16 42.54   -09 01.9    0.477    1.468   157.6    15.3    20.3
2001 06 30    16 34.23   -11 26.6    0.557    1.520   148.7    20.3    20.8
2001 07 10    16 31.44   -13 36.6    0.650    1.570   139.8    24.7    21.4
2001 07 20    16 33.33   -15 31.6    0.755    1.618   131.4    28.1    21.9

Gareth V. Williams           (C) Copyright 2001 MPC           M.P.E.C. 2001-A04

Read MPEC 2001-A03 Read MPEC 2001-A05


Our Web policy. Index to the CBAT/MPC/ICQ pages.

